Stations météo

Publicité
Niort, France (7330): Température de l'air & dewpoint: 18.10.2018 01:00:00 - 24.10.2018 01:00:00 (CEST)Niort, France (7330): Température de l'air 5cm: 18.10.2018 01:00:00 - 24.10.2018 01:00:00 (CEST)Niort, France (7330): Température de l'air -20cm & Température de l'air -100cm: 18.10.2018 01:00:00 - 24.10.2018 01:00:00 (CEST)Niort, France (7330): Vitesse du vent & gusts: 18.10.2018 01:00:00 - 24.10.2018 01:00:00 (CEST)Niort, France (7330): Direction du vent: 18.10.2018 01:00:00 - 24.10.2018 01:00:00 (CEST)Niort, France (7330): reduced air pressure: 18.10.2018 01:00:00 - 24.10.2018 01:00:00 (CEST)Niort, France (7330): visibility: 18.10.2018 01:00:00 - 24.10.2018 01:00:00 (CEST)Niort, France (7330): Ensoleillement: 18.10.2018 01:00:00 - 24.10.2018 01:00:00 (CEST)Niort, France (7330): Quantités de précipitations: 18.10.2018 01:00:00 - 24.10.2018 01:00:00 (CEST)
Date & Time tt [°C] td [°C] tt 5cm [°C] tt -20cm [°C] tt -100cm [°C] ff [km/h] ff [knt] fx [km/h] fx [knt] dd ppp [hPa] vv [km] sd [min] rr [mm]
24.10.2018 01:00:00 6,0 3,7 1,1 16,3 17,2 0 0 5 3 N 1031,9 20 0 0,0
24.10.2018 00:00:00 7,7 4,8 1,9 16,3 17,2 4 2 6 4 N 1032,2 20 0 0,0
23.10.2018 23:00:00 8,7 5,6 2,8 16,3 17,2 5 3 6 3 N 1032,2 20 0 0,0
23.10.2018 22:00:00 9,5 5,1 3,5 16,3 17,2 3 1 6 4 N 1032,2 20 0 0,0
23.10.2018 21:00:00 11,1 5,2 4,6 16,3 17,2 2 1 8 4 N 1032,2 20 0 0,0
23.10.2018 20:00:00 12,0 5,6 7,3 16,3 17,2 4 2 10 5 N 1032,1 20 0 0,0
23.10.2018 19:00:00 14,1 5,7 10,7 16,4 17,2 4 2 25 13 N 1032,0 20 11 0,0
23.10.2018 18:00:00 16,3 5,6 16,5 16,3 17,2 13 7 23 12 NNE 1032,1 20 56 0,0
23.10.2018 17:00:00 17,4 5,7 20,8 16,4 17,3 12 7 25 13 NE 1031,7 20 60 0,0
23.10.2018 16:00:00 17,2 5,2 20,4 16,4 17,3 15 8 30 16 NE 1032,0 20 60 0,0
23.10.2018 15:00:00 16,9 5,5 20,0 16,4 17,3 15 8 32 17 NE 1032,6 20 60 0,0
23.10.2018 14:00:00 15,9 6,6 18,9 16,4 17,3 16 9 29 16 NE 1033,1 20 60 0,0
23.10.2018 13:00:00 14,7 7,7 16,2 16,5 17,3 16 9 31 17 NE 1033,9 20 60 0,0
23.10.2018 12:00:00 13,1 7,3 13,2 16,4 17,3 19 10 31 17 NE 1034,3 19 60 0,0
23.10.2018 11:00:00 11,2 6,5 9,9 16,4 17,3 14 7 27 14 NE 1034,2 18 53 0,0
23.10.2018 10:00:00 9,4 5,9 6,9 16,5 17,3 12 6 21 11 NE 1033,8 20 38 0,0
23.10.2018 09:00:00 7,5 5,1 5,9 16,5 17,3 8 4 25 14 NNE 1033,1 20 1 0,0
23.10.2018 08:00:00 7,8 5,3 7,0 16,5 17,3 16 9 24 13 NNE 1032,5 20 0 0,0
23.10.2018 07:00:00 8,5 5,6 7,6 16,5 17,3 16 8 31 17 NE 1032,6 20 0 0,0
23.10.2018 06:00:00 9,2 5,9 8,3 16,5 17,3 16 9 29 16 NE 1032,9 20 0 0,0
23.10.2018 05:00:00 9,7 6,0 8,7 16,5 17,3 11 6 29 16 NE 1032,4 20 0 0,0
23.10.2018 04:00:00 10,5 6,6 9,6 16,5 17,3 15 8 28 15 NE 1032,6 20 0 0,0
23.10.2018 03:00:00 12,0 7,1 10,9 16,5 17,3 13 7 36 20 NNE 1032,6 20 0 0,0
23.10.2018 02:00:00 13,3 7,9 12,3 16,5 17,3 21 11 49 26 NE 1032,7 20 0 0,0
23.10.2018 01:00:00 14,1 8,7 13,7 16,5 17,3 26 14 45 25 NE 1032,8 20 0 0,0
23.10.2018 00:00:00 14,2 9,4 13,8 16,5 17,4 21 12 39 21 NE 1032,7 20 0 0,0
22.10.2018 23:00:00 14,4 9,6 13,8 16,5 17,4 22 12 41 22 NE 1032,6 20 0 0,0
22.10.2018 22:00:00 14,7 10,3 14,3 16,5 17,3 21 11 41 22 NE 1032,0 20 0 0,0
22.10.2018 21:00:00 15,3 11,1 15,0 16,5 17,4 23 12 43 23 NE 1031,7 20 0 0,0
22.10.2018 20:00:00 15,6 11,4 15,4 16,6 17,4 21 11 42 23 NE 1031,4 20 0 0,0
22.10.2018 19:00:00 16,0 11,6 15,6 16,6 17,3 23 12 51 27 NNE 1030,5 20 20 0,0
22.10.2018 18:00:00 17,1 11,1 17,3 16,6 17,4 27 15 49 26 NNE 1029,6 20 49 0,0
22.10.2018 17:00:00 18,7 11,0 19,5 16,6 17,4 26 14 50 27 NNE 1029,0 20 56 0,0
22.10.2018 16:00:00 19,3 7,7 22,0 16,6 17,4 29 15 49 26 NE 1028,8 20 60 0,0
22.10.2018 15:00:00 19,4 10,1 21,7 16,7 17,4 24 13 46 25 NE 1028,9 20 60 0,0
22.10.2018 14:00:00 18,3 9,9 20,5 16,7 17,4 26 14 45 24 NE 1029,1 19 60 0,0
22.10.2018 13:00:00 17,2 9,1 19,3 16,7 17,4 24 13 39 21 NE 1029,2 19 60 0,0
22.10.2018 12:00:00 16,8 8,7 16,0 16,8 17,4 22 12 40 22 NE 1028,8 20 60 0,0
22.10.2018 11:00:00 14,7 8,9 12,9 16,8 17,4 16 9 30 16 NE 1028,8 16 56 0,0
22.10.2018 10:00:00 12,6 8,3 10,5 16,8 17,4 16 9 29 15 NNE 1028,7 14 38 0,0
22.10.2018 09:00:00 10,9 7,2 8,9 16,8 17,4 13 7 24 13 NNE 1028,0 15 0 0,0
22.10.2018 08:00:00 10,2 5,8 8,2 16,8 17,4 9 5 26 14 NNE 1027,4 15 0 0,0
22.10.2018 07:00:00 10,1 6,1 6,8 16,8 17,4 5 3 15 8 NNE 1026,6 17 0 0,0
22.10.2018 06:00:00 10,0 5,8 8,5 16,8 17,4 8 4 17 9 NE 1026,3 16 0 0,0
22.10.2018 05:00:00 10,0 5,8 8,6 16,8 17,4 11 6 16 9 N 1026,1 16 0 0,0
22.10.2018 04:00:00 10,5 5,7 8,7 16,8 17,4 7 4 16 9 NNE 1025,9 17 0 0,0
22.10.2018 03:00:00 11,5 6,0 8,8 16,8 17,4 10 5 16 9 NNE 1025,9 16 0 0,0
22.10.2018 02:00:00 12,2 5,8 10,2 16,8 17,4 7 4 19 10 NNE 1025,7 19 0 0,0
22.10.2018 01:00:00 13,3 6,6 11,9 16,8 17,4 13 7 22 12 NE 1025,1 19 0 0,0
22.10.2018 00:00:00 13,4 7,4 9,8 16,8 17,5 12 6 19 11 NE 1024,8 19 0 0,0
21.10.2018 23:00:00 12,4 7,3 8,2 16,8 17,4 8 4 12 6 NNE 1024,6 18 0 0,0
21.10.2018 22:00:00 13,3 7,5 9,8 16,9 17,5 7 4 14 8 N 1024,3 19 0 0,0
21.10.2018 21:00:00 13,6 8,0 11,0 16,9 17,5 9 5 12 7 NNE 1024,0 17 0 0,0
21.10.2018 20:00:00 14,9 8,4 11,5 16,9 17,5 7 4 13 7 N 1023,7 19 0 0,0
21.10.2018 19:00:00 16,8 8,7 15,0 16,9 17,5 9 5 28 15 NNE 1023,5 19 41 0,0
21.10.2018 18:00:00 19,1 9,6 20,1 16,9 17,5 16 8 30 16 NE 1023,2 20 60 0,0
21.10.2018 17:00:00 19,8 9,9 22,8 17,0 17,5 18 10 29 15 NE 1023,4 20 60 0,0
21.10.2018 16:00:00 19,9 10,0 23,5 17,0 17,5 18 10 30 16 NE 1023,7 20 60 0,0
21.10.2018 15:00:00 19,8 11,3 23,2 17,0 17,5 19 10 32 17 NE 1023,9 16 60 0,0
21.10.2018 14:00:00 18,9 11,5 21,7 17,0 17,5 19 11 29 16 ENE 1024,6 12 60 0,0
21.10.2018 13:00:00 17,6 11,2 18,8 17,0 17,5 19 10 28 15 NE 1025,4 12 60 0,0
21.10.2018 12:00:00 15,2 10,2 14,5 17,0 17,5 16 9 29 15 NE 1025,8 11 60 0,0
21.10.2018 11:00:00 12,9 9,5 11,2 17,0 17,5 16 9 27 15 NE 1025,9 9 60 0,0
21.10.2018 10:00:00 10,6 8,5 8,4 17,0 17,5 15 8 24 13 NE 1026,1 7 34 0,0
21.10.2018 09:00:00 8,7 7,5 7,5 17,1 17,5 11 6 20 11 NE 1025,8 4,7 4 0,0
21.10.2018 08:00:00 8,9 7,5 7,6 17,0 17,5 11 6 21 12 ENE 1025,6 5 0 0,0
21.10.2018 07:00:00 9,8 7,9 8,7 17,0 17,5 13 7 25 13 ENE 1025,5 6 0 0,0
21.10.2018 06:00:00 10,1 8,2 8,9 17,0 17,5 11 6 26 14 NE 1025,6 6 0 0,0
21.10.2018 05:00:00 11,3 8,9 10,4 17,1 17,5 21 11 29 15 NE 1025,5 7 0 0,0
21.10.2018 04:00:00 11,8 9,4 10,8 17,1 17,5 21 11 29 16 NE 1026,0 7 0 0,0
21.10.2018 03:00:00 12,0 9,2 11,1 17,1 17,5 19 10 34 18 NE 1026,3 9 0 0,0
21.10.2018 02:00:00 12,9 9,3 11,9 17,1 17,5 20 11 35 19 ENE 1026,8 10 0 0,0
21.10.2018 01:00:00 13,6 9,6 12,3 17,1 17,6 22 12 30 16 NE 1026,9 12 0 0,0
21.10.2018 00:00:00 13,9 9,5 11,3 17,1 17,6 14 8 23 12 NE 1027,1 14 0 0,0
20.10.2018 23:00:00 14,2 9,4 11,1 17,1 17,5 5 3 24 13 ENE 1027,1 15 0 0,0
20.10.2018 22:00:00 15,1 10,1 13,6 17,1 17,6 11 6 27 14 NE 1026,9 15 0 0,0
20.10.2018 21:00:00 16,0 10,5 14,9 17,1 17,5 15 8 28 15 NE 1026,8 15 0 0,0
20.10.2018 20:00:00 16,9 10,7 15,7 17,1 17,5 16 9 29 16 NE 1026,4 16 0 0,0
20.10.2018 19:00:00 18,1 10,5 17,1 17,1 17,6 17 9 39 21 NE 1025,9 19 37 0,0
20.10.2018 18:00:00 19,9 10,6 20,3 17,1 17,6 22 12 37 20 NE 1025,7 20 60 0,0
20.10.2018 17:00:00 20,8 11,1 23,4 17,1 17,6 20 11 33 18 NE 1025,7 19 60 0,0
20.10.2018 16:00:00 20,1 11,8 23,2 17,2 17,6 19 10 35 19 NE 1026,0 13 58 0,0
20.10.2018 15:00:00 20,0 12,2 23,4 17,2 17,6 19 11 32 18 NE 1026,3 10 60 0,0
20.10.2018 14:00:00 19,2 12,0 22,3 17,2 17,6 21 12 34 19 NE 1027,1 10 60 0,0
20.10.2018 13:00:00 18,0 12,0 19,2 17,2 17,6 21 11 32 18 ENE 1027,6 9 60 0,0
20.10.2018 12:00:00 16,0 11,8 15,9 17,2 17,6 17 9 31 17 ENE 1027,3 7 60 0,0
20.10.2018 11:00:00 14,1 11,1 13,1 17,2 17,6 17 9 29 16 ENE 1027,1 5 60 0,0
20.10.2018 10:00:00 12,5 10,2 11,0 17,3 17,6 12 7 25 13 ENE 1027,0 4,3 27 0,0
20.10.2018 09:00:00 11,4 9,6 10,5 17,1 17,6 15 8 32 17 NE 1026,5 3,8 5 0,0
20.10.2018 08:00:00 11,4 9,6 10,7 17,3 17,6 18 10 31 17 NE 1025,8 3,8 0 0,0
20.10.2018 07:00:00 11,6 10,0 10,8 17,3 17,6 17 9 32 17 NE 1025,4 3,5 0 0,0
20.10.2018 06:00:00 11,6 10,0 10,5 17,2 17,6 14 8 26 14 NE 1024,7 3,5 0 0,0
20.10.2018 05:00:00 11,9 10,3 10,4 17,2 17,6 10 6 17 9 NE 1024,4 4,1 0 0,0
20.10.2018 04:00:00 12,3 10,4 11,3 17,3 17,6 11 6 24 13 NNE 1024,5 4,3 0 0,0
20.10.2018 03:00:00 12,8 10,7 12,0 17,2 17,6 13 7 23 12 NNE 1024,3 4,7 0 0,0
20.10.2018 02:00:00 13,2 10,9 12,3 17,3 17,6 14 7 23 13 NE 1024,1 4,8 0 0,0
20.10.2018 01:00:00 13,6 11,1 12,7 17,2 17,6 18 10 33 18 NE 1023,9 4,9 0 0,0
20.10.2018 00:00:00 13,9 11,4 13,1 17,3 17,6 20 11 31 17 NE 1024,1 5 0 0,0
19.10.2018 23:00:00 14,2 11,5 13,3 17,3 17,6 14 8 28 15 NE 1023,8 5 0 0,0
19.10.2018 22:00:00 14,7 12,0 13,9 17,3 17,6 16 8 32 18 NE 1023,3 5 0 0,0
19.10.2018 21:00:00 15,9 12,5 15,1 17,3 17,6 20 11 30 16 NNE 1023,0 6 0 0,0
19.10.2018 20:00:00 16,9 12,4 15,7 17,3 17,6 16 9 27 15 N 1022,4 9 0 0,0
19.10.2018 19:00:00 18,1 11,9 17,2 17,3 17,6 14 8 29 16 NNE 1021,3 12 45 0,0
19.10.2018 18:00:00 19,5 12,3 20,6 17,3 17,6 16 8 27 15 NE 1020,7 13 60 0,0
19.10.2018 17:00:00 20,1 12,1 22,9 17,3 17,6 17 9 31 17 NE 1020,4 13 60 0,0
19.10.2018 16:00:00 20,4 12,6 23,4 17,3 17,6 22 12 37 20 ENE 1020,6 13 60 0,0
19.10.2018 15:00:00 20,2 12,7 23,7 17,3 17,6 21 11 34 18 NE 1020,9 12 60 0,0
19.10.2018 14:00:00 19,9 13,1 21,7 17,4 17,6 21 12 31 17 ENE 1020,8 12 60 0,0
19.10.2018 13:00:00 17,8 12,5 18,7 17,4 17,6 17 9 29 16 NE 1020,9 9 60 0,0
19.10.2018 12:00:00 15,4 11,8 15,1 17,4 17,6 16 9 28 15 NE 1021,2 7 60 0,0
19.10.2018 11:00:00 13,6 10,9 13,2 17,4 17,7 19 10 30 16 NE 1021,2 6 60 0,0
19.10.2018 10:00:00 12,5 10,7 11,3 17,4 17,6 16 9 31 17 NE 1020,8 5 34 0,0
19.10.2018 09:00:00 11,6 10,2 10,8 17,4 17,7 15 8 25 14 NE 1020,1 4,7 4 0,0
19.10.2018 08:00:00 11,6 10,2 11,0 17,4 17,6 16 9 28 15 NNE 1019,7 4,8 0 0,0
19.10.2018 07:00:00 12,0 10,6 11,2 17,4 17,6 18 10 28 15 NE 1019,3 5 0 0,0
19.10.2018 06:00:00 12,4 10,6 11,7 17,4 17,7 16 8 26 14 NE 1019,4 5 0 0,0
19.10.2018 05:00:00 13,1 10,8 12,3 17,4 17,6 13 7 24 13 NE 1019,3 6 0 0,0
19.10.2018 04:00:00 13,4 11,1 12,5 17,4 17,7 14 8 29 16 NE 1019,2 6 0 0,0
19.10.2018 03:00:00 13,9 11,2 13,1 17,4 17,7 16 9 26 14 NE 1019,3 6 0 0,0
19.10.2018 02:00:00 14,5 11,3 13,7 17,4 17,7 17 9 28 15 NE 1019,2 7 0 0,0
19.10.2018 01:00:00 15,1 11,7 14,2 17,4 17,6 16 9 31 17 NE 1019,3 9 0 0,0
19.10.2018 00:00:00 15,7 11,7 14,9 17,4 17,7 18 10 39 21 NE 1019,4 12 0 0,0
18.10.2018 23:00:00 17,1 12,0 16,2 17,4 17,7 21 11 37 20 NE 1018,9 17 0 0,0
18.10.2018 22:00:00 17,4 12,1 15,9 17,4 17,7 17 9 29 16 NNE 1018,6 16 0 0,0
18.10.2018 21:00:00 17,3 11,1 15,8 17,4 17,7 15 8 25 13 NE 1018,1 20 0 0,0
18.10.2018 20:00:00 18,3 11,1 17,0 17,4 17,7 13 7 24 13 NE 1017,7 20 0 0,0
18.10.2018 19:00:00 19,7 11,5 18,5 17,4 17,7 15 8 25 13 NNE 1017,1 20 18 0,0
18.10.2018 18:00:00 21,3 11,3 20,5 17,4 17,7 19 10 31 17 NE 1016,7 20 47 0,0
18.10.2018 17:00:00 20,5 11,7 20,3 17,4 17,7 19 10 34 19 NE 1016,7 20 5 0,0
18.10.2018 16:00:00 21,1 12,0 23,3 17,4 17,7 24 13 38 21 NE 1017,0 20 54 0,0
18.10.2018 15:00:00 20,7 12,9 23,3 17,4 17,7 22 12 39 21 NE 1017,4 14 60 0,0
18.10.2018 14:00:00 19,9 12,6 22,6 17,4 17,7 23 12 39 21 NE 1017,9 13 60 0,0
18.10.2018 13:00:00 18,9 13,1 20,0 17,5 17,7 22 12 37 20 NE 1018,5 11 60 0,0
18.10.2018 12:00:00 17,3 12,6 17,3 17,4 17,7 22 12 34 18 NE 1018,6 9 60 0,0
18.10.2018 11:00:00 16,1 12,1 15,4 17,4 17,7 24 13 38 21 NE 1018,8 10 60 0,0
18.10.2018 10:00:00 14,9 11,7 13,8 17,4 17,7 24 13 37 20 NE 1018,2 11 26 0,0
18.10.2018 09:00:00 14,1 11,4 13,7 17,4 17,7 18 10 32 17 NE 1017,9 11 2 0,0
18.10.2018 08:00:00 14,9 11,7 14,4 17,4 17,7 20 11 37 20 NE 1017,3 18 0 0,0
18.10.2018 07:00:00 15,4 11,6 14,8 17,4 17,7 19 10 29 15 NE 1017,2 20 0 0,0
18.10.2018 06:00:00 15,8 11,8 15,2 17,4 17,7 18 10 29 16 NE 1016,8 20 0 0,0
18.10.2018 05:00:00 16,2 11,8 15,3 17,4 17,7 16 9 28 15 NE 1016,6 20 0 0,0
18.10.2018 04:00:00 16,4 12,2 14,6 17,4 17,7 16 9 26 14 NE 1016,7 20 0 0,2
18.10.2018 03:00:00 16,5 12,5 15,3 17,4 17,7 15 8 24 13 NE 1017,0 20 0 0,0
18.10.2018 02:00:00 16,3 12,6 15,5 17,4 17,7 13 7 26 14 NE 1017,0 20 0 0,0
18.10.2018 01:00:00 16,4 13,1 15,8 17,4 17,7 13 7 23 13 NE 1017,0 20 0 0,0

tt = Température de l'air
td = dewpoint
tt 5cm = Température de l'air 5cm
tt -20cm = Température de l'air -20cm
tt -100cm = Température de l'air -100cm
ff = Vitesse du vent
fx = gusts
dd = Direction du vent
ppp = reduced air pressure
vv = visibility
sd = Ensoleillement
rr = Quantités de précipitations

stations d'obs. à proximité